Flag for U.S.A. Weather past 2 weeks in Knoxville, Tennessee, U.S.A.

Now
65 °F

Passing clouds.


Feels Like: 65 °F
Forecast: 66 / 90 °F
Wind: No wind

Location: McGhee Tyson Airport

Current Time: Aug 28, 2014 at 7:34:02 AM

Latest Report: Aug 28, 2014 at 6:53 AM


Visibility: 10 mi

Pressure: 30.03 "Hg

Humidity: 94%

Dew point: 63 °F

Location of KnoxvilleLocation

Historic Weather in Knoxville — Graph

°F

Knoxville temperature yesterday

Maximum temperature yesterday: 86 °F (at 3:53 PM)
Minimum temperature yesterday: 64 °F (at 3:53 AM)
Average temperature yesterday: 74 °F

Past Weeks' High & Low Weather Summary

 TemperatureHumidityPressure
High90 °F (Aug 23, 2:53 PM)100% (Aug 18, 4:53 AM)30.15 "Hg (Aug 18, 4:53 AM)
Low59 °F (Aug 14, 3:53 AM)42% (Aug 27, 3:53 PM)29.82 "Hg (Aug 18, 4:53 PM)
Average75 °F77%29.99 "Hg
* Reported Aug 13 5:53 AM — Aug 28 5:53 AM, Knoxville, Weather by CustomWeather, © 2014

Note: Actual official high and low records may vary slightly from our data, if they occured in-between our weather recording intervals... More about our weather records

Advertising

Knoxville weather history for previous 24 hours

 ConditionsComfort  
Time TempWeatherWind HumidityBarometerVisibility
5:53 AM
Aug 28
67 °FClear.No wind87%30.01 "Hg10 mi
4:53 AM66 °FClear.No wind90%30.01 "Hg10 mi
3:53 AM66 °FClear.No wind90%30.01 "Hg10 mi
1:53 AM69 °FClear.No wind84%30.01 "Hg10 mi
12:53 AM69 °FClear.No wind87%30.03 "Hg10 mi
11:53 PM
Aug 27
70 °FClear.3 mph84%30.03 "Hg10 mi
10:53 PM73 °FClear.No wind74%30.03 "Hg10 mi
9:53 PM75 °FClear.No wind69%30.02 "Hg10 mi
8:53 PM78 °FScattered clouds.No wind58%30.01 "Hg10 mi
7:53 PM80 °FPartly sunny.3 mph51%30.00 "Hg10 mi
6:53 PM83 °FPartly sunny.7 mph50%30.00 "Hg10 mi
5:53 PM86 °FPartly sunny.7 mph45%30.01 "Hg10 mi
3:53 PM86 °FPartly sunny.7 mph42%30.04 "Hg10 mi
2:53 PM85 °FPassing clouds.8 mph48%30.05 "Hg10 mi
1:53 PM84 °FScattered clouds.8 mph51%30.07 "Hg10 mi
12:53 PM82 °FScattered clouds.5 mph58%30.08 "Hg10 mi
11:53 AM80 °FPassing clouds.No wind62%30.09 "Hg10 mi
10:53 AM77 °FPassing clouds.No wind66%30.11 "Hg10 mi
9:53 AM72 °FPassing clouds.3 mph78%30.11 "Hg10 mi
8:53 AM68 °FPassing clouds.No wind90%30.11 "Hg7 mi
7:53 AM65 °FPassing clouds.No wind94%30.09 "Hg6 mi
Weather by CustomWeather, © 2014

See weather overviewHow to use our weather pages